Location: Ca�n Batista
(41.4099°N, 1.7752°E)
Time: 13:42:00
(UTC+00:00)

PSLV R/B - Pass Details

Date: 03 March 2021
Orbit: 567 x 598 km, 98.2° (Epoch: 21 April)

Event Time Altitude Azimuth Distance (km) Brightness Sun altitude
Rises 18:33:37 0° 13° (NNE) 2,802 7.3 -9.7°
Reaches altitude 10° 18:35:47 10° 14° (NNE) 1,894 6.4 -10.1°
Maximum altitude 18:39:53 86° 102° (ESE) 580 3.8 -10.9°
Drops below altitude 10° 18:43:56 10° 193° (SSW) 1,864 6.7 -11.6°
Sets 18:46:03 0° 193° (SSW) 2,754 7.5 -12.0°
